This is the latest recevied weather packets stored in our database for station/object N1HQ. If no packets are shown the sender has not sent any weather packets the latest 10 day(s).
| Time | Temp. | Humidity | Pressure | Rain* | Wind** | Luminosity | Snow |
|---|---|---|---|---|---|---|---|
| 1778011208 | 27.22° C | 63% | 1013.1 hPa | 0 mm | - | - | - |
| 1778010945 | 27.78° C | 64% | 1013.2 hPa | 0 mm | - | - | - |
| 1778010653 | 27.22° C | 62% | 1013.3 hPa | 0 mm | - | - | - |
| 1778010393 | 27.22° C | 63% | 1013.2 hPa | 0 mm | - | - | - |
| 1778010133 | 27.22° C | 64% | 1013.2 hPa | 0 mm | - | - | - |
| 1778009880 | 27.78° C | 63% | 1013.2 hPa | 0 mm | - | - | - |
| 1778009603 | 27.78° C | 66% | 1013.2 hPa | 0 mm | - | - | - |
| 1778009333 | 27.78° C | 64% | 1013.2 hPa | 0 mm | - | - | - |
| 1778009043 | 27.22° C | 62% | 1013.2 hPa | 0 mm | - | - | - |
| 1778008753 | 27.78° C | 62% | 1013.2 hPa | 0 mm | - | - | - |
| 1778008463 | 27.78° C | 62% | 1013.2 hPa | 0 mm | - | - | - |
| 1778008173 | 27.78° C | 63% | 1013.2 hPa | 0 mm | - | - | - |
| 1778007873 | 27.78° C | 64% | 1013.5 hPa | 0 mm | - | - | - |
| 1778007573 | 27.78° C | 67% | 1013.6 hPa | 0 mm | - | - | - |
| 1778007288 | 27.78° C | 66% | 1013.7 hPa | 0 mm | - | - | - |
| 1778007038 | 27.22° C | 64% | 1013.6 hPa | 0 mm | - | - | - |
| 1778006753 | 27.22° C | 65% | 1013.7 hPa | 0 mm | - | - | - |
| 1778006495 | 27.78° C | 65% | 1013.8 hPa | 0 mm | - | - | - |
| 1778006243 | 27.78° C | 66% | 1013.7 hPa | 0 mm | - | - | - |
| 1778005967 | 27.22° C | 66% | 1013.7 hPa | 0 mm | - | - | - |
| 1778005723 | 27.78° C | 66% | 1013.6 hPa | 0 mm | - | - | - |
| 1778005422 | 27.22° C | 65% | 1013.7 hPa | 0 mm | - | - | - |
| 1778005168 | 27.22° C | 66% | 1013.5 hPa | 0 mm | - | - | - |
| 1778004883 | 26.67° C | 68% | 1013.5 hPa | 0 mm | - | - | - |
| 1778004613 | 26.67° C | 68% | 1013.6 hPa | 0 mm | - | - | - |
* Rain latest hour (hover to see other rain measurements)
** Current wind speed in m/s (hover to see current wind gust speed)